Terminal Aerodrome Forecast
Issued by NWS Cleveland, OH

Home | Current Version | Previous Version | Text Only | Print | Product List | Glossary Off
Versions: 1 2 3 4 5 6 7 8 9 10 11 12 13 14 15 16

672
FTUS41 KCLE 031251 AAA
TAFTOL
TAF AMD
KTOL 031251Z 0313/0412 22010G16KT P6SM SCT015
      TEMPO 0313/0316 BKN015
     FM031600 24015G25KT P6SM BKN035
     FM032100 25015G25KT P6SM OVC035
     FM040600 26010KT P6SM OVC015=

USA.gov is the U.S. government's official web portal to all federal, state and local government web resources and services.